Weather History for Lexington, NC

Change the Weather History Date:

Sunday, March 9, 2014

  Actual Average (KINT) Record (KINT)
Temperature  
Mean Temperature 50 °F -  
Max Temperature 66 °F 55 °F 84 °F (1974)
Min Temperature 34 °F 37 °F 15 °F (1966)
Degree Days  
Heating Degree Days 15    
Moisture  
Dew Point 36 °F    
Average Humidity 63    
Maximum Humidity 100    
Minimum Humidity 29    
Precipitation  
Precipitation 0.00 in - - ()
Sea Level Pressure  
Sea Level Pressure 30.03 in    
Wind  
Wind Speed 1 mph (WNW)    
Max Wind Speed 7 mph    
Max Gust Speed -    
Visibility 10 miles    
Events      
Averages and records for this station are not official NWS values.
T = Trace of Precipitation, MM = Missing Value Source: NWS Daily Summary

Daily Weather History Graph

Daily Weather History Graph

Search for Another Location

Airport:

Trip Planner

Search our weather history database for the weather conditions in past years. The results will help you decide how hot, cold, wet, or windy it might be!

Date:

Astronomy

Mar. 09, 2014 Rise Set
Actual Time 7:40 AM EDT 7:23 PM EDT
Civil Twilight 7:14 AM EDT 7:49 PM EDT
Nautical Twilight 6:45 AM EDT 8:18 PM EDT
Astronomical Twilight 6:15 AM EDT 8:48 PM EDT
Moon 1:23 PM EDT (3/9) 3:56 AM EDT (3/9)
Length of Visible Light 12h 34m
Length of Day
11h 43m
First Quarter, 61% of the Moon is Illuminated
Mar 9
First Quarter
Mar 16
Full
Mar 23
Last Quarter
Mar 30
New
Apr 7
First Quarter

Hourly Weather History & Observations

Time (EDT) Temp. Dew Point Humidity Pressure Visibility Wind Dir Wind Speed Gust Speed Precip Events Conditions
12:15 AM 41.0 °F 38.5 °F 91% 29.99 in 10.0 mi Calm Calm - N/A   Clear
12:35 AM 40.5 °F 38.5 °F 93% 29.99 in 10.0 mi Calm Calm - N/A   Clear
12:55 AM 39.7 °F 38.5 °F 95% 29.99 in 10.0 mi Calm Calm - N/A   Clear
1:15 AM 38.7 °F 38.7 °F 100% 29.99 in 10.0 mi Calm Calm - N/A   Clear
1:35 AM 37.9 °F 37.9 °F 100% 29.99 in 10.0 mi Calm Calm - N/A   Clear
1:55 AM 37.6 °F 37.6 °F 100% 29.99 in 10.0 mi Calm Calm - N/A   Clear
3:10 AM 37.0 °F 37.0 °F 100% 29.99 in 10.0 mi Calm Calm - N/A   Clear
3:35 AM 36.0 °F 36.0 °F 100% 29.99 in 10.0 mi Calm Calm - N/A   Clear
3:55 AM 35.4 °F 35.4 °F 100% 29.99 in 10.0 mi Calm Calm - N/A   Clear
4:15 AM 34.5 °F 34.5 °F 100% 29.99 in 10.0 mi Calm Calm - N/A   Clear
4:35 AM 34.5 °F 34.5 °F 100% 29.99 in 10.0 mi Calm Calm - N/A   Clear
4:55 AM 34.7 °F 34.7 °F 100% 29.99 in 10.0 mi Calm Calm - N/A   Clear
5:15 AM 34.7 °F 34.7 °F 100% 30.00 in 10.0 mi Calm Calm - N/A   Clear
5:35 AM 38.3 °F 37.0 °F 95% 30.00 in 10.0 mi Calm Calm - N/A   Clear
5:55 AM 39.7 °F 36.3 °F 88% 30.00 in 10.0 mi Calm Calm - N/A   Clear
6:15 AM 34.7 °F 34.3 °F 99% 30.01 in 10.0 mi Calm Calm - N/A   Clear
6:35 AM 35.1 °F 35.1 °F 100% 30.02 in 10.0 mi Calm Calm - N/A   Clear
6:55 AM 35.6 °F 35.6 °F 100% 30.03 in 10.0 mi Calm Calm - N/A   Clear
7:15 AM 36.9 °F 36.9 °F 100% 30.03 in 10.0 mi Calm Calm - N/A   Clear
7:35 AM 36.0 °F 35.1 °F 97% 30.03 in 10.0 mi Calm Calm - N/A   Clear
7:50 AM 35.6 °F 35.6 °F 100% 30.04 in 10.0 mi Calm Calm - N/A   Clear
8:15 AM 38.1 °F 37.8 °F 99% 30.06 in 10.0 mi Calm Calm - N/A   Clear
8:35 AM 36.9 °F 36.9 °F 100% 30.07 in 10.0 mi Calm Calm - N/A   Clear
8:55 AM 38.5 °F 38.5 °F 100% 30.07 in 10.0 mi Calm Calm - N/A   Clear
9:15 AM 40.8 °F 39.0 °F 93% 30.08 in 10.0 mi Calm Calm - N/A   Clear
9:35 AM 44.2 °F 40.5 °F 87% 30.08 in 10.0 mi Calm Calm - N/A   Clear
9:55 AM 52.2 °F 39.4 °F 62% 30.08 in 10.0 mi Calm Calm - N/A   Clear
10:15 AM 55.2 °F 39.2 °F 55% 30.07 in 10.0 mi NNW 6.9 mph - N/A   Clear
10:35 AM 55.0 °F 38.5 °F 54% 30.08 in 10.0 mi NW 4.6 mph - N/A   Clear
10:55 AM 55.8 °F 38.8 °F 53% 30.09 in 10.0 mi NW 4.6 mph - N/A   Clear
11:15 AM 57.7 °F 39.6 °F 51% 30.09 in 10.0 mi NW 3.5 mph - N/A   Clear
11:35 AM 58.6 °F 39.2 °F 48% 30.09 in 10.0 mi West 4.6 mph - N/A   Clear
11:55 AM 60.8 °F 39.2 °F 45% 30.08 in 10.0 mi WNW 4.6 mph - N/A   Clear
12:15 PM 60.1 °F 39.2 °F 46% 30.08 in 10.0 mi West 3.5 mph - N/A   Clear
12:35 PM 60.3 °F 37.8 °F 43% 30.08 in 10.0 mi WNW 5.8 mph - N/A   Clear
12:55 PM 60.6 °F 37.6 °F 42% 30.08 in 10.0 mi NW 5.8 mph - N/A   Clear
1:15 PM 61.9 °F 37.6 °F 41% 30.07 in 10.0 mi West 4.6 mph - N/A   Clear
1:35 PM 61.3 °F 36.9 °F 40% 30.07 in 10.0 mi Calm Calm - N/A   Clear
1:55 PM 61.3 °F 36.3 °F 39% 30.07 in 10.0 mi SW 3.5 mph - N/A   Clear
2:15 PM 63.3 °F 37.2 °F 38% 30.06 in 10.0 mi Calm Calm - N/A   Clear
2:35 PM 63.9 °F 37.6 °F 38% 30.05 in 10.0 mi WNW 6.9 mph - N/A   Clear
2:55 PM 63.0 °F 37.0 °F 38% 30.04 in 10.0 mi NW 5.8 mph - N/A   Clear
3:15 PM 63.7 °F 36.7 °F 37% 30.03 in 10.0 mi East 4.6 mph - N/A   Clear
3:35 PM 65.8 °F 37.4 °F 35% 30.03 in 10.0 mi NW 4.6 mph - N/A   Clear
3:55 PM 64.4 °F 36.1 °F 35% 30.03 in 10.0 mi WNW 4.6 mph - N/A   Clear
4:10 PM 65.5 °F 36.7 °F 35% 30.02 in 10.0 mi Calm Calm - N/A   Clear
4:35 PM 65.8 °F 37.0 °F 35% 30.02 in 10.0 mi Calm Calm - N/A   Clear
4:55 PM 66.0 °F 36.5 °F 34% 30.02 in 10.0 mi WNW 5.8 mph - N/A   Clear
5:15 PM 66.0 °F 36.1 °F 33% 30.02 in 10.0 mi Calm Calm - N/A   Clear
5:35 PM 65.8 °F 34.7 °F 32% 30.01 in 10.0 mi Calm Calm - N/A   Clear
5:55 PM 66.2 °F 33.3 °F 29% 30.00 in 10.0 mi SW 4.6 mph - N/A   Clear
6:15 PM 66.4 °F 33.4 °F 29% 30.00 in 10.0 mi SW 3.5 mph - N/A   Clear
6:35 PM 65.5 °F 32.7 °F 30% 30.00 in 10.0 mi WSW 3.5 mph - N/A   Clear
6:55 PM 63.9 °F 33.3 °F 32% 30.00 in 10.0 mi Calm Calm - N/A   Clear
7:15 PM 60.8 °F 33.4 °F 36% 30.00 in 10.0 mi Calm Calm - N/A   Clear
7:35 PM 58.6 °F 33.3 °F 38% 30.00 in 10.0 mi Calm Calm - N/A   Clear
7:55 PM 56.1 °F 33.8 °F 43% 30.00 in 10.0 mi Calm Calm - N/A   Clear
8:15 PM 56.3 °F 32.9 °F 41% 30.01 in 10.0 mi Calm Calm - N/A   Clear
8:35 PM 53.8 °F 34.0 °F 47% 30.02 in 10.0 mi Calm Calm - N/A   Clear
8:55 PM 53.1 °F 33.8 °F 48% 30.02 in 10.0 mi Calm Calm - N/A   Clear
9:15 PM 50.9 °F 35.2 °F 55% 30.03 in 10.0 mi Calm Calm - N/A   Clear
9:35 PM 50.0 °F 34.9 °F 56% 30.03 in 10.0 mi Calm Calm - N/A   Clear
9:55 PM 48.7 °F 34.7 °F 58% 30.03 in 10.0 mi Calm Calm - N/A   Clear
10:15 PM 47.7 °F 34.0 °F 59% 30.03 in 10.0 mi Calm Calm - N/A   Clear
10:35 PM 46.6 °F 33.6 °F 61% 30.03 in 10.0 mi Calm Calm - N/A   Clear
10:55 PM 49.1 °F 31.6 °F 51% 30.04 in 10.0 mi Calm Calm - N/A   Clear
11:15 PM 50.5 °F 30.2 °F 46% 30.03 in 10.0 mi Calm Calm - N/A   Clear
11:35 PM 50.0 °F 30.4 °F 47% 30.03 in 10.0 mi Calm Calm - N/A   Clear
11:55 PM 49.6 °F 30.6 °F 48% 30.03 in 10.0 mi Calm Calm - N/A   Clear
12:15 AM 48.0 °F 30.0 °F 50% 30.04 in 10.0 mi Calm Calm - N/A   Clear
12:35 AM 47.5 °F 29.3 °F 49% 30.03 in 10.0 mi Calm Calm - N/A   Clear
12:55 AM 45.3 °F 29.7 °F 54% 30.02 in 10.0 mi Calm Calm - N/A   Clear